When you browse on this site, cookies collect data to enhance your experience and personalize the content and advertising you see.
Visit our Privacy Policy to learn more. By continuing to use the site, you agree to this use of cookies and data.
EN

Hourly Weather Mostow

Today, 8 August, Saturday

Time Temperature Precipitation Wind Pressure Humidity
00:00 +20°C° 0 mm 2 mps 753 mmHg 84%
01:00 +20°C° 0 mm 2 mps 753 mmHg 86%
02:00 +20°C° 0 mm 2 mps 754 mmHg 86%
03:00 +19°C° 0 mm 2 mps 753 mmHg 88%
04:00 +19°C° 0 mm 2 mps 753 mmHg 89%
05:00 +19°C° 0 mm 2 mps 753 mmHg 91%
06:00 +20°C° 0 mm 2 mps 753 mmHg 87%
07:00 +21°C° 0 mm 3 mps 753 mmHg 84%
08:00 +24°C° 0 mm 2 mps 754 mmHg 80%
09:00 +25°C° 0 mm 3 mps 754 mmHg 73%
10:00 +27°C° 0 mm 3 mps 753 mmHg 67%
11:00 +28°C° 0 mm 3 mps 753 mmHg 61%
12:00 +29°C° 0 mm 3 mps 753 mmHg 57%
13:00 +29°C° 0 mm 2 mps 753 mmHg 53%
14:00 +30°C° 0 mm 2 mps 752 mmHg 50%
15:00 +30°C° 0 mm 2 mps 752 mmHg 50%
16:00 +30°C° 0 mm 2 mps 752 mmHg 50%
17:00 +30°C° 0 mm 1 mps 751 mmHg 49%
18:00 +29°C° 0 mm 1 mps 751 mmHg 55%
19:00 +27°C° 0 mm 1 mps 751 mmHg 60%
20:00 +26°C° 0 mm 2 mps 751 mmHg 65%
21:00 +25°C° 0 mm 2 mps 751 mmHg 68%
22:00 +24°C° 0 mm 2 mps 751 mmHg 72%
23:00 +23°C° 0 mm 2 mps 751 mmHg 75%

Tomorrow, 9 August, Sunday

Time Temperature Precipitation Wind Pressure Humidity
00:00 +23°C° 0 mm 1 mps 751 mmHg 78%
01:00 +22°C° 0 mm 1 mps 751 mmHg 80%
02:00 +22°C° 0 mm 1 mps 751 mmHg 83%
03:00 +21°C° 0.1 mm 1 mps 751 mmHg 85%
04:00 +21°C° 0.1 mm 1 mps 751 mmHg 87%
05:00 +20°C° 0.1 mm 1 mps 750 mmHg 89%
06:00 +22°C° 0.1 mm 1 mps 750 mmHg 85%
07:00 +23°C° 0.1 mm 1 mps 751 mmHg 81%
08:00 +24°C° 0.1 mm 1 mps 751 mmHg 77%
09:00 +25°C° 0.7 mm 1 mps 751 mmHg 72%
10:00 +27°C° 0.7 mm 1 mps 750 mmHg 66%
11:00 +28°C° 0.7 mm 1 mps 750 mmHg 60%
12:00 +28°C° 0.3 mm 1 mps 750 mmHg 58%
13:00 +29°C° 0.3 mm 2 mps 750 mmHg 56%
14:00 +29°C° 0.3 mm 2 mps 750 mmHg 55%
15:00 +29°C° 0.7 mm 2 mps 750 mmHg 57%
16:00 +28°C° 0.7 mm 2 mps 749 mmHg 60%
17:00 +28°C° 0.7 mm 3 mps 749 mmHg 62%
18:00 +26°C° 0.2 mm 2 mps 749 mmHg 68%
19:00 +25°C° 0.2 mm 2 mps 749 mmHg 74%
20:00 +23°C° 0.2 mm 2 mps 749 mmHg 81%
21:00 +23°C° 0.6 mm 2 mps 749 mmHg 83%
22:00 +21°C° 0.6 mm 2 mps 749 mmHg 84%
23:00 +21°C° 0.6 mm 1 mps 749 mmHg 86%

Day after tomorrow, 10 August, Monday

Time Temperature Precipitation Wind Pressure Humidity
00:00 +20°C° 0.1 mm 2 mps 749 mmHg 87%
01:00 +19°C° 0.1 mm 2 mps 749 mmHg 88%
02:00 +19°C° 0.1 mm 2 mps 749 mmHg 89%
03:00 +19°C° 0 mm 2 mps 749 mmHg 90%
04:00 +19°C° 0 mm 1 mps 749 mmHg 91%
05:00 +19°C° 0 mm 1 mps 748 mmHg 92%
06:00 +19°C° 0 mm 2 mps 749 mmHg 88%
07:00 +20°C° 0 mm 2 mps 749 mmHg 85%
08:00 +23°C° 0 mm 2 mps 749 mmHg 81%
09:00 +24°C° 0 mm 2 mps 749 mmHg 75%
10:00 +26°C° 0 mm 2 mps 749 mmHg 68%
11:00 +27°C° 0 mm 3 mps 749 mmHg 62%
12:00 +28°C° 0.1 mm 3 mps 749 mmHg 59%
13:00 +28°C° 0.1 mm 3 mps 749 mmHg 55%
14:00 +29°C° 0.1 mm 3 mps 749 mmHg 52%
15:00 +29°C° 0.3 mm 3 mps 748 mmHg 54%
16:00 +28°C° 0.3 mm 3 mps 748 mmHg 56%
17:00 +28°C° 0.3 mm 3 mps 748 mmHg 58%
18:00 +26°C° 0.5 mm 3 mps 748 mmHg 65%
19:00 +25°C° 0.5 mm 3 mps 748 mmHg 73%
20:00 +22°C° 0.5 mm 3 mps 748 mmHg 80%
21:00 +21°C° 0.1 mm 3 mps 748 mmHg 83%
22:00 +21°C° 0.1 mm 3 mps 749 mmHg 85%
23:00 +20°C° 0.1 mm 3 mps 749 mmHg 87%

11 August, Tuesday

Time Temperature Precipitation Wind Pressure Humidity
00:00 +19°C° 0 mm 3 mps 749 mmHg 89%
01:00 +19°C° 0 mm 3 mps 749 mmHg 90%
02:00 +18°C° 0 mm 3 mps 749 mmHg 92%
03:00 +18°C° 0 mm 3 mps 749 mmHg 93%
04:00 +18°C° 0 mm 3 mps 749 mmHg 94%
05:00 +18°C° 0 mm 3 mps 749 mmHg 95%
06:00 +19°C° 0 mm 3 mps 749 mmHg 90%
07:00 +20°C° 0 mm 3 mps 749 mmHg 84%
08:00 +21°C° 0 mm 3 mps 749 mmHg 79%
09:00 +22°C° 0 mm 4 mps 749 mmHg 72%
10:00 +23°C° 0 mm 4 mps 750 mmHg 64%
11:00 +26°C° 0 mm 4 mps 750 mmHg 57%
12:00 +26°C° 0 mm 5 mps 750 mmHg 54%
13:00 +26°C° 0 mm 5 mps 750 mmHg 51%
14:00 +27°C° 0 mm 5 mps 750 mmHg 48%
15:00 +26°C° 0 mm 5 mps 749 mmHg 50%
16:00 +26°C° 0 mm 5 mps 749 mmHg 53%
17:00 +26°C° 0 mm 5 mps 749 mmHg 55%
18:00 +23°C° 0 mm 4 mps 749 mmHg 60%
19:00 +22°C° 0 mm 4 mps 750 mmHg 65%
20:00 +20°C° 0 mm 4 mps 750 mmHg 70%
21:00 +19°C° 0 mm 4 mps 750 mmHg 72%
22:00 +18°C° 0 mm 3 mps 750 mmHg 73%
23:00 +16°C° 0 mm 3 mps 751 mmHg 75%

12 August, Wednesday

Time Temperature Precipitation Wind Pressure Humidity
00:00 +16°C° 0 mm 3 mps 751 mmHg 77%
01:00 +14°C° 0 mm 3 mps 751 mmHg 80%
02:00 +14°C° 0 mm 3 mps 751 mmHg 83%
03:00 +14°C° 0 mm 2 mps 751 mmHg 85%
04:00 +14°C° 0 mm 2 mps 751 mmHg 86%
05:00 +13°C° 0 mm 2 mps 751 mmHg 88%
06:00 +15°C° 0 mm 2 mps 751 mmHg 83%
07:00 +16°C° 0 mm 3 mps 751 mmHg 77%
08:00 +17°C° 0 mm 3 mps 751 mmHg 72%
09:00 +19°C° 0 mm 3 mps 751 mmHg 65%
10:00 +20°C° 0 mm 3 mps 752 mmHg 59%
11:00 +21°C° 0 mm 3 mps 752 mmHg 52%
12:00 +22°C° 0 mm 3 mps 752 mmHg 50%
13:00 +22°C° 0 mm 3 mps 752 mmHg 47%
14:00 +24°C° 0 mm 3 mps 751 mmHg 45%
15:00 +24°C° 0 mm 3 mps 751 mmHg 46%
16:00 +22°C° 0 mm 3 mps 751 mmHg 48%
17:00 +22°C° 0 mm 4 mps 751 mmHg 49%
18:00 +21°C° 0 mm 3 mps 751 mmHg 55%
19:00 +19°C° 0 mm 3 mps 751 mmHg 62%
20:00 +18°C° 0 mm 3 mps 751 mmHg 68%
21:00 +17°C° 0 mm 2 mps 751 mmHg 71%
22:00 +16°C° 0 mm 2 mps 752 mmHg 74%
23:00 +15°C° 0 mm 2 mps 752 mmHg 77%

13 August, Thursday

Time Temperature Precipitation Wind Pressure Humidity
00:00 +14°C° 0 mm 2 mps 752 mmHg 80%
01:00 +13°C° 0 mm 2 mps 752 mmHg 83%
02:00 +13°C° 0 mm 2 mps 752 mmHg 86%
03:00 +12°C° 0 mm 2 mps 751 mmHg 88%
04:00 +12°C° 0 mm 2 mps 751 mmHg 89%
05:00 +12°C° 0 mm 2 mps 751 mmHg 91%
06:00 +13°C° 0 mm 2 mps 751 mmHg 85%
07:00 +15°C° 0 mm 2 mps 751 mmHg 80%
08:00 +16°C° 0 mm 2 mps 751 mmHg 74%
09:00 +17°C° 0 mm 2 mps 751 mmHg 68%
10:00 +19°C° 0 mm 2 mps 751 mmHg 62%
11:00 +20°C° 0 mm 2 mps 751 mmHg 56%
12:00 +22°C° 0 mm 1 mps 751 mmHg 53%
13:00 +23°C° 0 mm 1 mps 751 mmHg 50%
14:00 +24°C° 0 mm 1 mps 751 mmHg 47%
15:00 +24°C° 0 mm 1 mps 750 mmHg 46%
16:00 +24°C° 0 mm 1 mps 750 mmHg 46%
17:00 +24°C° 0 mm 1 mps 750 mmHg 45%
18:00 +22°C° 0 mm 1 mps 750 mmHg 51%
19:00 +21°C° 0 mm 1 mps 750 mmHg 57%
20:00 +19°C° 0 mm 1 mps 750 mmHg 63%
21:00 +18°C° 0 mm 1 mps 750 mmHg 68%
22:00 +16°C° 0 mm 1 mps 750 mmHg 72%
23:00 +15°C° 0 mm 1 mps 750 mmHg 77%
Show more